Wind_Speed
11 14 14 17 19 20 18 16 15 16 14 12 9 9 9 10 12 11 9 9 10 9 9 9 10 11 11 10 13 13 10 10 13
12 14 15 19 20 20 20 18 18 17 14 11 8 8 10 8 7 7 9 9 9 9 11 12 12 12 10 9 10 9 8 8 10
13 14 17 19 21 22 21 18 16 15 8 10 13 9 7 5 6 8 8 8 9 10 10 10 10 9 8 8 8 7 6 6 6
14 16 19 21 22 21 22 20 18 19 17 6 12 7 5 5 6 7 8 8 7 7 8 7 7 7 5 5 6 7 7 8 7
16 16 18 20 23 23 22 20 19 20 19 14 8 9 6 4 5 7 7 7 6 6 6 6 5 4 5 6 7 8 9 9 8
18 19 20 20 22 24 24 24 21 21 17 15 16 11 9 6 6 5 5 6 6 6 6 5 3 3 4 5 7 10 9 7 5
19 20 22 22 22 24 23 24 22 21 21 15 17 14 12 9 5 4 4 4 5 5 4 3 3 3 5 6 6 6 6 6 6
21 22 22 24 25 25 25 25 24 23 21 19 20 17 13 8 6 5 4 4 5 5 5 4 3 2 1 2 4 5 6 6 6
26 26 25 27 25 25 25 23 22 23 22 21 20 16 12 10 8 4 4 5 6 6 5 3 2 2 2 2 3 1 4 7 9
29 28 27 27 27 25 24 23 22 22 20 20 18 15 12 8 7 6 5 5 6 6 6 5 4 5 4 3 3 4 6 7 9
28 26 24 25 26 24 21 19 18 17 20 19 17 14 10 9 7 6 7 8 8 7 8 7 5 6 5 5 7 8 9 9 9
21 23 25 27 25 24 19 17 17 18 21 19 15 14 11 9 7 8 9 9 9 9 8 7 7 6 4 5 8 8 8 8 10
18 17 19 21 24 20 17 16 18 20 20 19 17 13 9 8 9 9 10 11 11 9 9 8 6 3 3 6 9 10 10 11 12
15 15 15 16 18 20 18 15 17 20 23 19 13 12 9 7 9 10 11 11 11 9 10 8 4 4 5 7 8 9 10 11 13
15 16 17 15 19 24 13 14 21 19 21 16 14 10 6 9 9 9 11 11 10 9 9 7 5 5 6 7 7 8 9 10 12
12 14 14 15 11 12 13 16 19 18 18 15 10 9 9 8 8 9 11 11 9 8 6 6 7 7 7 6 7 8 10 11 11
14 16 19 14 7 9 13 14 15 16 15 12 9 9 9 8 9 11 12 12 10 8 8 8 8 7 8 7 8 8 10 11 10
18 17 14 13 12 11 12 14 15 16 14 9 7 7 7 9 11 11 11 11 10 10 9 10 11 10 10 10 10 9 9 9 10
21 20 19 18 17 16 15 16 16 11 7 5 5 5 7 9 10 9 9 10 11 13 12 13 14 14 13 13 12 12 12 11 10
23 20 18 15 15 15 13 10 8 5 4 4 4 5 5 5 6 7 9 11 14 12 11 14 14 13 13 14 15 15 14 14 15
Wind_Direction
156 158 164 169 177 174 168 176 183 179 179 181 193 216 227 246 255 261 279 290 295 289 285 287 290 294 285 280 285 292 300 277 264
163 167 163 168 175 172 174 180 183 183 177 188 186 210 237 241 255 262 277 287 288 286 287 294 296 301 310 306 310 314 309 284 267
167 172 169 172 176 180 181 186 187 182 180 211 193 208 220 243 264 269 283 283 287 289 292 296 298 300 310 320 322 323 323 317 306
169 176 177 175 176 178 185 192 191 190 189 186 214 207 223 246 271 288 291 291 290 292 296 299 303 308 319 327 333 336 331 322 315
169 168 172 174 182 184 184 191 201 209 204 212 228 210 211 239 276 293 297 295 300 305 308 309 310 318 326 336 339 339 338 330 318
172 168 168 177 177 183 192 195 197 197 198 218 209 214 216 214 245 276 300 305 313 321 318 309 314 324 330 337 334 338 345 356 355
178 176 172 174 180 184 185 186 190 193 201 201 204 207 203 209 237 294 316 318 314 314 310 302 313 329 331 331 339 5 23 27 23
182 179 177 183 186 186 185 187 192 197 203 208 205 198 194 205 237 264 299 323 319 312 304 291 283 278 266 348 357 8 20 18 18
192 187 187 189 191 192 192 197 200 203 210 201 194 195 197 216 237 266 298 323 320 327 302 287 283 288 288 291 159 16 342 344 344
200 193 194 194 194 195 199 204 206 208 205 196 194 195 204 220 243 269 294 313 316 314 288 296 303 284 285 265 279 309 313 318 328
196 197 192 196 198 198 200 204 211 206 193 191 198 201 209 227 245 275 302 310 310 290 279 283 300 298 271 281 287 297 308 308 319
198 198 200 203 200 198 201 208 194 191 196 196 204 207 217 235 263 282 294 308 300 286 283 299 320 322 269 269 282 296 305 311 311
187 196 205 199 200 195 203 208 188 195 206 204 210 219 224 247 262 274 290 292 278 276 284 294 311 322 318 299 287 289 298 302 305
191 188 191 200 202 196 204 203 199 199 206 210 208 223 234 266 279 275 286 288 285 287 289 291 281 301 314 314 304 292 292 297 301
167 169 184 187 184 191 192 220 207 208 207 207 211 226 257 276 268 271 287 288 286 289 287 279 274 294 314 324 325 320 313 306 304
154 162 162 163 186 192 203 201 206 213 206 209 220 239 265 256 249 272 283 282 286 286 285 281 284 276 294 310 326 334 334 327 312
140 144 149 154 174 188 182 193 190 195 198 207 218 249 260 255 268 287 288 286 283 277 280 268 274 285 293 295 303 316 334 344 331
140 148 157 159 143 147 158 161 165 175 185 202 227 233 252 271 285 290 288 287 284 267 264 264 272 278 286 287 286 292 304 322 343
126 128 132 134 142 136 143 145 157 165 172 199 237 256 265 277 290 294 292 282 277 271 272 271 271 269 271 278 274 274 281 288 299
107 109 108 108 121 122 127 135 149 172 211 231 239 242 254 283 297 297 288 281 278 282 279 272 271 265 258 265 273 270 272 275 281
Height
1499 1503 1509 1511 1516 1521 1525 1528 1531 1533 1535 1538 1542 1545 1548 1549 1551 1552 1552 1552 1552 1551 1551 1551 1550 1549 1548 1549 1549 1548 1548 1549 1549
1499 1503 1509 1512 1516 1520 1524 1527 1529 1530 1532 1536 1541 1544 1546 1547 1549 1549 1550 1550 1550 1549 1549 1548 1547 1545 1545 1544 1544 1544 1545 1545 1545
1498 1502 1507 1511 1516 1520 1523 1527 1529 1531 1534 1535 1538 1543 1545 1546 1547 1548 1547 1547 1548 1548 1547 1545 1544 1544 1542 1542 1541 1541 1541 1541 1540
1496 1500 1505 1509 1513 1518 1522 1524 1528 1530 1533 1536 1538 1540 1543 1545 1547 1548 1547 1546 1545 1545 1545 1544 1542 1542 1541 1540 1539 1538 1538 1538 1537
1494 1498 1502 1507 1511 1516 1519 1522 1525 1528 1531 1534 1537 1539 1541 1543 1545 1546 1546 1545 1544 1543 1542 1542 1540 1540 1539 1538 1537 1536 1535 1535 1534
1492 1496 1499 1504 1508 1512 1515 1518 1521 1524 1528 1530 1533 1537 1540 1542 1543 1544 1543 1543 1542 1541 1540 1541 1540 1539 1538 1536 1535 1534 1532 1532 1532
1490 1494 1497 1501 1504 1507 1511 1514 1518 1522 1525 1528 1532 1534 1538 1541 1542 1542 1540 1539 1539 1537 1537 1537 1538 1538 1539 1537 1535 1532 1531 1530 1530
1488 1491 1494 1498 1500 1505 1510 1514 1516 1520 1523 1527 1532 1534 1535 1538 1541 1540 1540 1538 1538 1537 1537 1537 1532 1528 1529 1531 1534 1534 1531 1530 1529
1484 1486 1489 1493 1499 1504 1509 1515 1518 1522 1525 1528 1529 1533 1536 1538 1540 1539 1538 1537 1538 1536 1537 1535 1534 1533 1532 1528 1528 1528 1530 1530 1529
1481 1482 1485 1491 1496 1502 1506 1511 1515 1518 1521 1526 1531 1533 1535 1536 1538 1539 1538 1536 1535 1534 1537 1535 1533 1534 1532 1531 1529 1527 1527 1526 1526
1473 1479 1484 1489 1494 1500 1506 1511 1516 1520 1522 1525 1529 1532 1533 1536 1537 1537 1537 1535 1534 1535 1535 1532 1529 1529 1530 1531 1530 1528 1526 1525 1523
1471 1476 1480 1485 1491 1497 1502 1505 1509 1517 1521 1524 1528 1530 1532 1533 1534 1535 1535 1534 1534 1535 1533 1531 1528 1527 1527 1528 1528 1527 1526 1524 1522
1467 1473 1478 1483 1488 1494 1499 1502 1503 1510 1520 1522 1526 1529 1529 1529 1530 1530 1531 1532 1532 1529 1528 1526 1524 1525 1526 1526 1525 1524 1523 1524 1521
1466 1470 1476 1481 1486 1492 1496 1501 1505 1508 1517 1521 1524 1527 1527 1527 1528 1528 1529 1530 1530 1527 1526 1525 1523 1523 1523 1523 1522 1522 1521 1520 1520
1466 1469 1475 1481 1486 1491 1498 1501 1505 1509 1514 1519 1522 1525 1525 1524 1524 1526 1526 1526 1525 1524 1523 1522 1521 1522 1522 1521 1520 1520 1519 1517 1516
1469 1473 1477 1483 1488 1492 1497 1501 1504 1510 1514 1518 1520 1522 1522 1521 1521 1522 1522 1522 1521 1520 1519 1520 1521 1520 1521 1519 1519 1518 1517 1515 1513
1474 1477 1481 1487 1490 1494 1497 1501 1504 1508 1512 1516 1517 1519 1520 1520 1520 1519 1519 1518 1516 1517 1517 1518 1520 1518 1518 1517 1518 1517 1516 1514 1512
1478 1482 1485 1487 1490 1495 1498 1500 1504 1508 1510 1513 1515 1515 1515 1518 1517 1516 1515 1514 1514 1515 1515 1516 1517 1516 1515 1515 1516 1516 1515 1514 1512
1480 1482 1485 1489 1491 1493 1500 1501 1505 1508 1510 1512 1513 1513 1513 1514 1514 1512 1511 1511 1513 1513 1512 1513 1513 1513 1512 1513 1513 1513 1512 1512 1510
1480 1484 1486 1492 1497 1499 1502 1504 1506 1508 1509 1510 1510 1511 1511 1511 1511 1510 1510 1510 1510 1509 1510 1509 1509 1509 1509 1509 1509 1508 1508 1508 1507